,,Stat5,,Stat1,,Stat2,,Stat3,,Stat4,,Wind1,,Wind1,
time,status,PA1M_AVG,status,PR1M_SUM,status,RH1M_AVG,status,SR1M_AVG,status,TA1M_AVG,status,W1dAve1m,status,W1sAve1m,
2001-05-23, 00:00:00,VALID,918.267,VALID,0,VALID,94.8833,VALID,-0.101885,VALID,20.1597,VALID,60,VALID,0.67947,
2001-05-23, 00:01:00,VALID,918.267,VALID,0,VALID,94.8083,VALID,-0.101885,VALID,20.1602,VALID,44,VALID,0.709335,
2001-05-23, 00:02:00,VALID,918.256,VALID,0,VALID,94.6684,VALID,-0.101885,VALID,20.1152,VALID,36,VALID,0.782652,
2001-05-23, 00:03:00,VALID,918.249,VALID,0,VALID,94.8757,VALID,-0.118866,VALID,20.0434,VALID,58,VALID,0.578526,
2001-05-23, 00:04:00,VALID,918.229,VALID,0,VALID,95.0346,VALID,-0.118866,VALID,20.0277,VALID,86,VALID,0.724712,
2001-05-23, 00:05:00,VALID,918.231,VALID,0,VALID,94.91,VALID,-0.118866,VALID,20.0086,VALID,108,VALID,1.02464,
2001-05-23, 00:06:00,VALID,918.239,VALID,0,VALID,94.8248,VALID,-0.101885,VALID,19.9922,VALID,116,VALID,0.786384,
2001-05-23, 00:07:00,VALID,917.808,VALID,0,VALID,94.8134,VALID,-0.101885,VALID,19.9822,VALID,109,VALID,0.969141,
2001-05-23, 00:08:00,VALID,918.236,VALID,0,VALID,94.7867,VALID,-0.101885,VALID,19.985,VALID,76,VALID,0.734375,
2001-05-23, 00:09:00,VALID,918.23,VALID,0,VALID,94.8566,VALID,-0.135847,VALID,19.9924,VALID,79,VALID,0.772135,
2001-05-23, 00:10:00,VALID,918.225,VALID,0,VALID,94.9609,VALID,-0.0169808,VALID,19.9939,VALID,92,VALID,1.08657,
2001-05-23, 00:11:00,VALID,918.2,VALID,0,VALID,95.0524,VALID,-0.0169808,VALID,20.0068,VALID,88,VALID,0.970806,
2001-05-23, 00:12:00,VALID,918.178,VALID,0,VALID,95.2305,VALID,0,VALID,20.0197,VALID,105,VALID,0.987753,
2001-05-23, 00:13:00,VALID,918.154,VALID,0,VALID,95.2953,VALID,0,VALID,20.019,VALID,103,VALID,1.02302,
2001-05-23, 00:14:00,VALID,918.114,VALID,0,VALID,95.378,VALID,0,VALID,20.026,VALID,100,VALID,0.881027,
2001-05-23, 00:15:00,VALID,918.085,VALID,0,VALID,95.4454,VALID,0,VALID,20.0257,VALID,103,VALID,1.12891,
2001-05-23, 00:16:00,VALID,918.069,VALID,0,VALID,95.5013,VALID,-0.0169808,VALID,20.0424,VALID,86,VALID,0.925465,
2001-05-23, 00:17:00,VALID,918.053,VALID,0,VALID,95.4416,VALID,0,VALID,20.055,VALID,99,VALID,0.856136,
2001-05-23, 00:18:00,VALID,918.049,VALID,0,VALID,95.3767,VALID,-0.0169808,VALID,20.0655,VALID,92,VALID,0.900586,
2001-05-23, 00:19:00,VALID,918.044,VALID,0,VALID,95.3347,VALID,-0.0509425,VALID,20.0752,VALID,93,VALID,0.685033,
2001-05-23, 00:20:00,VALID,918.046,VALID,0,VALID,95.3055,VALID,0,VALID,20.0779,VALID,72,VALID,0.401316,
2001-05-23, 00:21:00,VALID,918.039,VALID,0,VALID,95.3284,VALID,-0.0169808,VALID,20.0652,VALID,58,VALID,0.229297,
2001-05-23, 00:22:00,VALID,918.045,VALID,0,VALID,95.5344,VALID,-0.0169808,VALID,20.0747,VALID,118,VALID,0.608974,
2001-05-23, 00:23:00,VALID,918.056,VALID,0,VALID,95.6933,VALID,-0.0169808,VALID,20.0873,VALID,141,VALID,0.62433,
2001-05-23, 00:24:00,VALID,918.055,VALID,0,VALID,95.6971,VALID,0,VALID,20.104,VALID,93,VALID,0.526367,
2001-05-23, 00:25:00,VALID,918.061,VALID,0,VALID,95.5,VALID,0.0849042,VALID,20.0888,VALID,72,VALID,0.406684,
2001-05-23, 00:26:00,VALID,918.048,VALID,0,VALID,95.3932,VALID,0.0849042,VALID,20.093,VALID,67,VALID,0.645399,
2001-05-23, 00:27:00,VALID,918.05,VALID,0,VALID,95.2712,VALID,0.0679233,VALID,20.1087,VALID,51,VALID,0.560697,
2001-05-23, 00:28:00,VALID,918.039,VALID,0,VALID,95.2534,VALID,0.0849042,VALID,20.1213,VALID,58,VALID,0.56949,
2001-05-23, 00:29:00,VALID,918.031,VALID,0,VALID,95.2699,VALID,0.0849042,VALID,20.1415,VALID,60,VALID,0.484581,
2001-05-23, 00:30:00,VALID,918.009,VALID,0,VALID,95.1898,VALID,0.0849042,VALID,20.1536,VALID,58,VALID,0.396115,
2001-05-23, 00:31:00,VALID,918.001,VALID,0,VALID,95.0232,VALID,0.0679233,VALID,20.1735,VALID,58,VALID,0.269965,
2001-05-23, 00:32:00,VALID,917.991,VALID,0,VALID,94.9164,VALID,0.101885,VALID,20.1728,VALID,60,VALID,0.228674,
2001-05-23, 00:33:00,VALID,917.975,VALID,0,VALID,94.8019,VALID,0.101885,VALID,20.1956,VALID,60,VALID,0.094778,
2001-05-23, 00:34:00,VALID,917.974,VALID,0,VALID,94.6455,VALID,0.101885,VALID,20.2222,VALID,60,VALID,0.0947516,
2001-05-23, 00:35:00,VALID,917.959,VALID,0,VALID,94.4662,VALID,0.101885,VALID,20.2177,VALID,71,VALID,0.224359,
2001-05-23, 00:36:00,VALID,917.968,VALID,0,VALID,94.3086,VALID,0.101885,VALID,20.2411,VALID,82,VALID,0,
2001-05-23, 00:37:00,VALID,917.956,VALID,0,VALID,94.2272,VALID,0.118866,VALID,20.257,VALID,92,VALID,0,
2001-05-23, 00:38:00,VALID,917.972,VALID,0,VALID,94.161,VALID,0.101885,VALID,20.2667,VALID,92,VALID,0,
2001-05-23, 00:39:00,VALID,917.955,VALID,0,VALID,94.0759,VALID,0.101885,VALID,20.263,VALID,92,VALID,0,
2001-05-23, 00:40:00,VALID,917.953,VALID,0,VALID,94.0809,VALID,0.0169808,VALID,20.2645,VALID,135,VALID,0.204044,
2001-05-23, 00:41:00,VALID,917.956,VALID,0,VALID,94.2081,VALID,0,VALID,20.2715,VALID,138,VALID,0.607936,
2001-05-23, 00:42:00,VALID,917.951,VALID,0,VALID,94.3556,VALID,0,VALID,20.2685,VALID,137,VALID,0.77935,
2001-05-23, 00:43:00,VALID,917.94,VALID,0,VALID,94.5133,VALID,0,VALID,20.2553,VALID,135,VALID,0.884983,
2001-05-23, 00:44:00,VALID,917.912,VALID,0,VALID,94.7167,VALID,-0.0169808,VALID,20.2456,VALID,137,VALID,0.831163,
2001-05-23, 00:45:00,VALID,917.9,VALID,0,VALID,94.7562,VALID,0.0169808,VALID,20.2523,VALID,137,VALID,0.680099,
2001-05-23, 00:46:00,VALID,917.879,VALID,0,VALID,94.7409,VALID,0.0169808,VALID,20.262,VALID,137,VALID,0.500422,
2001-05-23, 00:47:00,VALID,917.875,VALID,0,VALID,94.7371,VALID,0,VALID,20.255,VALID,137,VALID,0.229687,
2001-05-23, 00:48:00,VALID,917.871,VALID,0,VALID,94.7206,VALID,0.0169808,VALID,20.2747,VALID,137,VALID,0,
2001-05-23, 00:49:00,VALID,917.87,VALID,0,VALID,94.6748,VALID,0,VALID,20.268,VALID,137,VALID,0,
2001-05-23, 00:50:00,VALID,917.865,VALID,0,VALID,94.479,VALID,0,VALID,20.2742,VALID,137,VALID,0,
2001-05-23, 00:51:00,VALID,917.857,VALID,0,VALID,94.4205,VALID,-0.0169808,VALID,20.2521,VALID,137,VALID,0,
2001-05-23, 00:52:00,VALID,917.861,VALID,0,VALID,94.5438,VALID,0,VALID,20.2553,VALID,137,VALID,0,
2001-05-23, 00:53:00,VALID,917.859,VALID,0,VALID,94.5997,VALID,0,VALID,20.2518,VALID,146,VALID,0.0548986,
2001-05-23, 00:54:00,VALID,917.871,VALID,0,VALID,94.7193,VALID,0,VALID,20.2354,VALID,166,VALID,0.47516,
2001-05-23, 00:55:00,VALID,917.871,VALID,0,VALID,94.9316,VALID,0,VALID,20.2461,VALID,175,VALID,0.486579,
2001-05-23, 00:56:00,VALID,917.882,VALID,0,VALID,95.0931,VALID,0,VALID,20.2131,VALID,175,VALID,0.442508,
2001-05-23, 00:57:00,VALID,917.883,VALID,0,VALID,95.2241,VALID,-0.0169808,VALID,20.2063,VALID,175,VALID,0.265625,
2001-05-23, 00:58:00,VALID,917.886,VALID,0,VALID,95.3195,VALID,0,VALID,20.1939,VALID,175,VALID,0.234961,
2001-05-23, 00:59:00,VALID,917.887,VALID,0,VALID,95.3614,VALID,0,VALID,20.1969,VALID,175,VALID,0,
2001-05-23, 01:00:00,VALID,917.872,VALID,0,VALID,95.3691,VALID,0.0169808,VALID,20.2004,VALID,175,VALID,0.376302,
2001-05-23, 01:01:00,VALID,917.884,VALID,0,VALID,95.3818,VALID,0,VALID,20.1837,VALID,171,VALID,0.401182,
2001-05-23, 01:02:00,VALID,917.881,VALID,0,VALID,95.4072,VALID,0,VALID,20.174,VALID,147,VALID,0.380757,
2001-05-23, 01:03:00,VALID,917.893,VALID,0,VALID,95.4365,VALID,0.0169808,VALID,20.1708,VALID,152,VALID,0.700591,
2001-05-23, 01:04:00,VALID,917.901,VALID,0,VALID,95.4161,VALID,0,VALID,20.1676,VALID,175,VALID,0.580659,
2001-05-23, 01:05:00,VALID,917.904,VALID,0,VALID,95.4021,VALID,0.0169808,VALID,20.1775,VALID,172,VALID,0.370982,
2001-05-23, 01:06:00,VALID,917.902,VALID,0,VALID,95.4148,VALID,0.0339617,VALID,20.1676,VALID,170,VALID,0.426192,
2001-05-23, 01:07:00,VALID,917.891,VALID,0,VALID,95.4543,VALID,0,VALID,20.1579,VALID,167,VALID,0.082348,
2001-05-23, 01:08:00,VALID,917.884,VALID,0,VALID,95.4339,VALID,0.0169808,VALID,20.1616,VALID,167,VALID,0.126524,
2001-05-23, 01:09:00,VALID,917.866,VALID,0,VALID,95.5051,VALID,0.0169808,VALID,20.1711,VALID,167,VALID,0.0416016,
2001-05-23, 01:10:00,VALID,917.863,VALID,0,VALID,95.5255,VALID,-0.101885,VALID,20.1654,VALID,167,VALID,0.224712,
2001-05-23, 01:11:00,VALID,917.838,VALID,0,VALID,95.5204,VALID,-0.0849042,VALID,20.1758,VALID,167,VALID,0.00657895,
2001-05-23, 01:12:00,VALID,917.825,VALID,0,VALID,95.4187,VALID,-0.118866,VALID,20.1763,VALID,167,VALID,0.0158203,
2001-05-23, 01:13:00,VALID,917.823,VALID,0,VALID,95.3017,VALID,-0.118866,VALID,20.1567,VALID,167,VALID,0.0811298,
2001-05-23, 01:14:00,VALID,917.798,VALID,0,VALID,95.2355,VALID,-0.118866,VALID,20.1179,VALID,167,VALID,0,
2001-05-23, 01:15:00,VALID,917.795,VALID,0,VALID,95.1898,VALID,-0.101885,VALID,20.0821,VALID,162,VALID,0,
2001-05-23, 01:16:00,VALID,917.779,VALID,0,VALID,95.1999,VALID,-0.118866,VALID,20.0533,VALID,74,VALID,0.214627,
2001-05-23, 01:17:00,VALID,917.757,VALID,0,VALID,95.336,VALID,-0.101885,VALID,20.031,VALID,69,VALID,0.415582,
2001-05-23, 01:18:00,VALID,917.752,VALID,0,VALID,95.6107,VALID,-0.101885,VALID,20.0369,VALID,68,VALID,0.465545,
2001-05-23, 01:19:00,VALID,917.729,VALID,0,VALID,95.6806,VALID,-0.101885,VALID,20.0496,VALID,68,VALID,0.585526,
2001-05-23, 01:20:00,VALID,917.721,VALID,0,VALID,95.7734,VALID,-0.101885,VALID,20.0563,VALID,68,VALID,0.61986,
2001-05-23, 01:21:00,VALID,917.712,VALID,0,VALID,95.9273,VALID,-0.0849042,VALID,20.0595,VALID,71,VALID,0.621199,
2001-05-23, 01:22:00,VALID,917.704,VALID,0,VALID,96.015,VALID,-0.118866,VALID,20.0732,VALID,82,VALID,0.566623,
2001-05-23, 01:23:00,VALID,917.694,VALID,0,VALID,95.9298,VALID,-0.101885,VALID,20.0662,VALID,91,VALID,0.694046,
2001-05-23, 01:24:00,VALID,917.686,VALID,0,VALID,95.9489,VALID,-0.118866,VALID,20.0667,VALID,93,VALID,0.718956,
2001-05-23, 01:25:00,VALID,917.676,VALID,0,VALID,95.9426,VALID,0,VALID,20.0483,VALID,94,VALID,0.652845,
2001-05-23, 01:26:00,VALID,917.664,VALID,0,VALID,95.9044,VALID,0,VALID,20.0523,VALID,94,VALID,0.663662,
2001-05-23, 01:27:00,VALID,917.633,VALID,0,VALID,95.6819,VALID,0,VALID,20.0389,VALID,93,VALID,0.57728,
2001-05-23, 01:28:00,VALID,917.636,VALID,0,VALID,95.6145,VALID,0,VALID,20.0063,VALID,92,VALID,0.713199,
2001-05-23, 01:29:00,VALID,917.63,VALID,0,VALID,95.6946,VALID,0,VALID,19.9738,VALID,86,VALID,0.547276,
2001-05-23, 01:30:00,VALID,917.634,VALID,0,VALID,95.5331,VALID,0,VALID,19.9385,VALID,79,VALID,0.427284,
2001-05-23, 01:31:00,VALID,917.634,VALID,0,VALID,95.5102,VALID,-0.0169808,VALID,19.9166,VALID,73,VALID,0.642233,
2001-05-23, 01:32:00,VALID,917.645,VALID,0,VALID,95.6056,VALID,0,VALID,19.8938,VALID,60,VALID,0.585115,
2001-05-23, 01:33:00,VALID,917.639,VALID,0,VALID,95.6208,VALID,0,VALID,19.8647,VALID,66,VALID,0.762669,
2001-05-23, 01:34:00,VALID,917.639,VALID,0,VALID,95.7544,VALID,0,VALID,19.8418,VALID,58,VALID,0.774957,
2001-05-23, 01:35:00,VALID,917.643,VALID,0,VALID,95.7277,VALID,0,VALID,19.8068,VALID,51,VALID,0.87283,
2001-05-23, 01:36:00,VALID,917.63,VALID,0,VALID,95.9019,VALID,0,VALID,19.7743,VALID,44,VALID,0.851151,
2001-05-23, 01:37:00,VALID,917.605,VALID,0,VALID,95.9807,VALID,-0.0169808,VALID,19.729,VALID,41,VALID,1.01943,
2001-05-23, 01:38:00,VALID,917.61,VALID,0,VALID,96.1905,VALID,0.0169808,VALID,19.6806,VALID,37,VALID,1.05379,
2001-05-23, 01:39:00,VALID,917.593,VALID,0,VALID,96.3622,VALID,0,VALID,19.6637,VALID,27,VALID,1.06741,
2001-05-23, 01:40:00,VALID,917.577,VALID,0,VALID,96.4894,VALID,-0.101885,VALID,19.6625,VALID,26,VALID,1.04667,
2001-05-23, 01:41:00,VALID,917.567,VALID,0,VALID,96.5148,VALID,-0.101885,VALID,19.65,VALID,40,VALID,0.984976,
2001-05-23, 01:42:00,VALID,917.556,VALID,0,VALID,96.628,VALID,-0.101885,VALID,19.623,VALID,52,VALID,0.950391,
2001-05-23, 01:43:00,VALID,917.536,VALID,0,VALID,96.8479,VALID,-0.101885,VALID,19.6331,VALID,59,VALID,0.732525,
2001-05-23, 01:44:00,VALID,917.531,VALID,0,VALID,96.9026,VALID,-0.0849042,VALID,19.653,VALID,101,VALID,0.641892,
2001-05-23, 01:45:00,VALID,917.522,VALID,0,VALID,96.9586,VALID,-0.101885,VALID,19.6495,VALID,125,VALID,0.599559,
2001-05-23, 01:46:00,VALID,917.51,VALID,0,VALID,97.0832,VALID,-0.0849042,VALID,19.6662,VALID,148,VALID,0.770433,
2001-05-23, 01:47:00,VALID,917.495,VALID,0,VALID,97.1315,VALID,-0.101885,VALID,19.6719,VALID,159,VALID,0.933894,
2001-05-23, 01:48:00,VALID,917.499,VALID,0,VALID,97.2154,VALID,-0.118866,VALID,19.6816,VALID,148,VALID,0.794866,
2001-05-23, 01:49:00,VALID,917.478,VALID,0,VALID,97.3426,VALID,-0.101885,VALID,19.698,VALID,154,VALID,0.691602,
2001-05-23, 01:50:00,VALID,917.446,VALID,0,VALID,97.4024,VALID,-0.101885,VALID,19.7141,VALID,159,VALID,0.56467,
2001-05-23, 01:51:00,VALID,917.42,VALID,0,VALID,97.4672,VALID,-0.118866,VALID,19.7271,VALID,154,VALID,0.532986,
2001-05-23, 01:52:00,VALID,917.4,VALID,0,VALID,97.4812,VALID,-0.0679233,VALID,19.7407,VALID,148,VALID,0.376056,
2001-05-23, 01:53:00,VALID,917.394,VALID,0,VALID,97.555,VALID,-0.101885,VALID,19.7241,VALID,154,VALID,0.434622,
2001-05-23, 01:54:00,VALID,917.376,VALID,0,VALID,97.6147,VALID,-0.101885,VALID,19.7206,VALID,154,VALID,0.34016,
2001-05-23, 01:55:00,VALID,917.371,VALID,0,VALID,97.6758,VALID,-0.0169808,VALID,19.729,VALID,167,VALID,0.259291,
2001-05-23, 01:56:00,VALID,917.362,VALID,0,VALID,97.7203,VALID,0,VALID,19.7194,VALID,169,VALID,0.26875,
2001-05-23, 01:57:00,VALID,917.363,VALID,0,VALID,97.7508,VALID,0,VALID,19.7263,VALID,169,VALID,0.148026,
2001-05-23, 01:58:00,VALID,917.359,VALID,0,VALID,97.8144,VALID,0,VALID,19.7223,VALID,169,VALID,0.0179476,
2001-05-23, 01:59:00,VALID,917.358,VALID,0,VALID,97.8156,VALID,0,VALID,19.7226,VALID,208,VALID,0.268483,
2001-05-23, 02:00:00,VALID,917.344,VALID,0,VALID,97.8106,VALID,-0.0169808,VALID,19.7156,VALID,248,VALID,0.0986328,
2001-05-23, 02:01:00,VALID,917.329,VALID,0,VALID,97.7559,VALID,0,VALID,19.7293,VALID,248,VALID,0.151521,
2001-05-23, 02:02:00,VALID,917.318,VALID,0,VALID,97.6808,VALID,0.0169808,VALID,19.7417,VALID,248,VALID,0.036801,
2001-05-23, 02:03:00,VALID,917.305,VALID,0,VALID,97.602,VALID,0,VALID,19.7586,VALID,248,VALID,0.0107422,
2001-05-23, 02:04:00,VALID,917.283,VALID,0,VALID,97.4367,VALID,0.0169808,VALID,19.7581,VALID,282,VALID,0.182292,
2001-05-23, 02:05:00,VALID,917.279,VALID,0,VALID,97.2536,VALID,0.0169808,VALID,19.7579,VALID,18,VALID,0.376786,
2001-05-23, 02:06:00,VALID,917.282,VALID,0,VALID,97.0336,VALID,0,VALID,19.7387,VALID,40,VALID,0.470508,
2001-05-23, 02:07:00,VALID,917.279,VALID,0,VALID,96.9471,VALID,0,VALID,19.729,VALID,40,VALID,0.526042,
2001-05-23, 02:08:00,VALID,917.268,VALID,0,VALID,96.8073,VALID,0.0169808,VALID,19.7064,VALID,40,VALID,0.564887,
2001-05-23, 02:09:00,VALID,917.276,VALID,0,VALID,96.6776,VALID,-0.0169808,VALID,19.6707,VALID,31,VALID,0.827524,
2001-05-23, 02:10:00,VALID,917.287,VALID,0,VALID,96.4894,VALID,0.0339617,VALID,19.6389,VALID,13,VALID,1.24363,
2001-05-23, 02:11:00,VALID,917.282,VALID,0,VALID,96.6089,VALID,0,VALID,19.5907,VALID,18,VALID,1.23376,
2001-05-23, 02:12:00,VALID,917.286,VALID,0,VALID,96.7742,VALID,0,VALID,19.5646,VALID,15,VALID,1.33594,
2001-05-23, 02:13:00,VALID,917.293,VALID,0,VALID,96.9815,VALID,0,VALID,19.5517,VALID,17,VALID,1.23069,
2001-05-23, 02:14:00,VALID,917.298,VALID,0,VALID,97.2142,VALID,0,VALID,19.5678,VALID,19,VALID,1.07137,
2001-05-23, 02:15:00,VALID,917.293,VALID,0,VALID,97.3388,VALID,0,VALID,19.5775,VALID,16,VALID,0.944696,
2001-05-23, 02:16:00,VALID,917.274,VALID,0,VALID,97.3413,VALID,0,VALID,19.5805,VALID,21,VALID,0.871995,
2001-05-23, 02:17:00,VALID,917.278,VALID,0,VALID,97.2968,VALID,0,VALID,19.5648,VALID,33,VALID,0.776442,
2001-05-23, 02:18:00,VALID,917.257,VALID,0,VALID,97.3464,VALID,0,VALID,19.539,VALID,23,VALID,0.857475,
2001-05-23, 02:19:00,VALID,917.261,VALID,0,VALID,97.4736,VALID,0,VALID,19.5422,VALID,16,VALID,0.764186,
2001-05-23, 02:20:00,VALID,917.263,VALID,0,VALID,97.5664,VALID,0.0169808,VALID,19.5353,VALID,37,VALID,0.798878,
2001-05-23, 02:21:00,VALID,917.259,VALID,0,VALID,97.6351,VALID,-0.0169808,VALID,19.5325,VALID,52,VALID,0.663862,
2001-05-23, 02:22:00,VALID,917.259,VALID,0,VALID,97.7393,VALID,0,VALID,19.5258,VALID,57,VALID,0.646369,
2001-05-23, 02:23:00,VALID,917.268,VALID,0,VALID,97.8347,VALID,0,VALID,19.529,VALID,58,VALID,0.814556,
2001-05-23, 02:24:00,VALID,917.235,VALID,0,VALID,97.8665,VALID,0.0169808,VALID,19.5159,VALID,60,VALID,0.924198,
2001-05-23, 02:25:00,VALID,917.24,VALID,0,VALID,97.8614,VALID,0,VALID,19.5392,VALID,60,VALID,0.814453,
2001-05-23, 02:26:00,VALID,917.247,VALID,0,VALID,97.8195,VALID,0,VALID,19.5261,VALID,61,VALID,0.88303,
2001-05-23, 02:27:00,VALID,917.23,VALID,0,VALID,97.8156,VALID,0,VALID,19.5067,VALID,52,VALID,0.857319,
2001-05-23, 02:28:00,VALID,917.24,VALID,0,VALID,97.8156,VALID,-0.0169808,VALID,19.503,VALID,48,VALID,0.604096,
2001-05-23, 02:29:00,VALID,917.242,VALID,0,VALID,97.8017,VALID,0,VALID,19.5196,VALID,44,VALID,0.384375,
2001-05-23, 02:30:00,VALID,917.246,VALID,0,VALID,97.7177,VALID,-0.0169808,VALID,19.5129,VALID,40,VALID,0.19933,
2001-05-23, 02:31:00,VALID,917.256,VALID,0,VALID,97.6224,VALID,-0.0169808,VALID,19.5064,VALID,40,VALID,0.241365,
2001-05-23, 02:32:00,VALID,917.254,VALID,0,VALID,97.6033,VALID,0.0169808,VALID,19.5164,VALID,40,VALID,0.318109,
2001-05-23, 02:33:00,VALID,917.242,VALID,0,VALID,97.5473,VALID,0,VALID,19.5166,VALID,41,VALID,0.35918,
2001-05-23, 02:34:00,VALID,917.246,VALID,0,VALID,97.4927,VALID,-0.0169808,VALID,19.5228,VALID,42,VALID,0.43565,
2001-05-23, 02:35:00,VALID,917.231,VALID,0,VALID,97.4799,VALID,-0.0169808,VALID,19.5452,VALID,42,VALID,0.629645,
2001-05-23, 02:36:00,VALID,917.213,VALID,0,VALID,97.3629,VALID,-0.0169808,VALID,19.5546,VALID,35,VALID,0.718349,
2001-05-23, 02:37:00,VALID,917.203,VALID,0,VALID,97.2027,VALID,0,VALID,19.5651,VALID,27,VALID,0.651643,
2001-05-23, 02:38:00,VALID,917.181,VALID,0,VALID,97.115,VALID,0,VALID,19.5517,VALID,20,VALID,0.689503,
2001-05-23, 02:39:00,VALID,917.167,VALID,0,VALID,97.0883,VALID,0,VALID,19.5551,VALID,17,VALID,0.543304,
2001-05-23, 02:40:00,VALID,917.157,VALID,0,VALID,97.0832,VALID,0,VALID,19.5683,VALID,19,VALID,0.79082,
2001-05-23, 02:41:00,VALID,917.146,VALID,0,VALID,96.9344,VALID,0,VALID,19.5482,VALID,14,VALID,0.938585,
2001-05-23, 02:42:00,VALID,917.132,VALID,0,VALID,96.7526,VALID,0,VALID,19.5519,VALID,10,VALID,0.914497,
2001-05-23, 02:43:00,VALID,917.126,VALID,0,VALID,96.4754,VALID,-0.0509425,VALID,19.5748,VALID,11,VALID,1.01056,
2001-05-23, 02:44:00,VALID,917.121,VALID,0,VALID,96.0596,VALID,-0.0339617,VALID,19.5909,VALID,14,VALID,0.858141,
2001-05-23, 02:45:00,VALID,917.113,VALID,0,VALID,95.6247,VALID,-0.0339617,VALID,19.6297,VALID,12,VALID,0.974873,
2001-05-23, 02:46:00,VALID,917.106,VALID,0,VALID,95.2979,VALID,0,VALID,19.6649,VALID,13,VALID,0.667863,
2001-05-23, 02:47:00,VALID,917.082,VALID,0,VALID,94.9761,VALID,-0.0169808,VALID,19.6746,VALID,14,VALID,0.51183,
2001-05-23, 02:48:00,VALID,917.059,VALID,0,VALID,94.5374,VALID,0,VALID,19.6841,VALID,13,VALID,0.497533,
2001-05-23, 02:49:00,VALID,917.044,VALID,0,VALID,94.0619,VALID,0.0169808,VALID,19.7263,VALID,13,VALID,0.428209,
2001-05-23, 02:50:00,VALID,917.012,VALID,0,VALID,93.5074,VALID,0,VALID,19.7713,VALID,13,VALID,0.490473,
2001-05-23, 02:51:00,VALID,917.014,VALID,0,VALID,93.2684,VALID,0,VALID,19.8267,VALID,13,VALID,0.422461,
2001-05-23, 02:52:00,VALID,917.006,VALID,0,VALID,92.939,VALID,0,VALID,19.8682,VALID,10,VALID,0.85074,
2001-05-23, 02:53:00,VALID,916.994,VALID,0,VALID,92.0044,VALID,0,VALID,19.933,VALID,5,VALID,0.776933,
2001-05-23, 02:54:00,VALID,916.978,VALID,0,VALID,91.6852,VALID,0,VALID,20.0205,VALID,10,VALID,0.631836,
2001-05-23, 02:55:00,VALID,916.968,VALID,0,VALID,91.4818,VALID,-0.0169808,VALID,20.059,VALID,11,VALID,0.572516,
2001-05-23, 02:56:00,VALID,916.983,VALID,0,VALID,91.3394,VALID,0,VALID,20.0844,VALID,10,VALID,0.489732,
2001-05-23, 02:57:00,VALID,916.972,VALID,0,VALID,91.291,VALID,-0.0169808,VALID,20.0881,VALID,9,VALID,0.626953,
2001-05-23, 02:58:00,VALID,916.969,VALID,0,VALID,91.4843,VALID,0,VALID,20.0622,VALID,9,VALID,0.591363,
2001-05-23, 02:59:00,VALID,916.975,VALID,0,VALID,91.6623,VALID,0,VALID,20.0463,VALID,9,VALID,0.470052,
2001-05-23, 03:00:00,VALID,916.963,VALID,0,VALID,91.787,VALID,0,VALID,20.0041,VALID,11,VALID,0.524439,
2001-05-23, 03:01:00,VALID,916.958,VALID,0,VALID,91.9434,VALID,0,VALID,19.9584,VALID,13,VALID,0.451686,
2001-05-23, 03:02:00,VALID,916.938,VALID,0,VALID,92.1328,VALID,0,VALID,19.9134,VALID,21,VALID,0.535979,
2001-05-23, 03:03:00,VALID,916.917,VALID,0,VALID,92.4177,VALID,-0.0169808,VALID,19.8488,VALID,21,VALID,0.740709,
2001-05-23, 03:04:00,VALID,916.911,VALID,0,VALID,92.7712,VALID,-0.0169808,VALID,19.7812,VALID,19,VALID,0.929905,
2001-05-23, 03:05:00,VALID,916.894,VALID,0,VALID,93.1934,VALID,-0.0169808,VALID,19.7231,VALID,11,VALID,0.809122,
2001-05-23, 03:06:00,VALID,916.885,VALID,0,VALID,93.3739,VALID,-0.0169808,VALID,19.6873,VALID,11,VALID,0.546669,
2001-05-23, 03:07:00,VALID,916.874,VALID,0,VALID,93.6575,VALID,-0.0339617,VALID,19.6548,VALID,2,VALID,0.509415,
2001-05-23, 03:08:00,VALID,916.86,VALID,0,VALID,93.9283,VALID,0,VALID,19.6836,VALID,339,VALID,0.879207,
2001-05-23, 03:09:00,VALID,916.847,VALID,0,VALID,93.7579,VALID,-0.0169808,VALID,19.7775,VALID,353,VALID,0.658361,
2001-05-23, 03:10:00,VALID,916.839,VALID,0,VALID,93.2697,VALID,-0.0339617,VALID,19.8687,VALID,332,VALID,0.344161,
2001-05-23, 03:11:00,VALID,916.829,VALID,0,VALID,92.7445,VALID,0,VALID,19.8908,VALID,331,VALID,0,
2001-05-23, 03:12:00,VALID,916.812,VALID,0,VALID,92.9378,VALID,0,VALID,19.8881,VALID,331,VALID,0.0965545,
2001-05-23, 03:13:00,VALID,916.795,VALID,0,VALID,92.7712,VALID,0,VALID,19.8814,VALID,344,VALID,0.270221,
2001-05-23, 03:14:00,VALID,916.782,VALID,0,VALID,93.0115,VALID,-0.0169808,VALID,19.8587,VALID,345,VALID,0.300576,
2001-05-23, 03:15:00,VALID,916.77,VALID,0,VALID,92.8195,VALID,-0.0169808,VALID,19.8523,VALID,6,VALID,0.206503,
2001-05-23, 03:16:00,VALID,916.787,VALID,0,VALID,92.8195,VALID,0,VALID,19.8068,VALID,6,VALID,0.0266927,
2001-05-23, 03:17:00,VALID,916.783,VALID,0,VALID,92.8144,VALID,0,VALID,19.7941,VALID,6,VALID,0,
2001-05-23, 03:18:00,VALID,916.799,VALID,0,VALID,93.187,VALID,-0.0509425,VALID,19.7882,VALID,349,VALID,0.367188,
2001-05-23, 03:19:00,VALID,916.806,VALID,0,VALID,93.1488,VALID,-0.0339617,VALID,19.7618,VALID,13,VALID,0.278294,
2001-05-23, 03:20:00,VALID,916.805,VALID,0,VALID,93.2976,VALID,0,VALID,19.7261,VALID,4,VALID,0.0950893,
2001-05-23, 03:21:00,VALID,916.822,VALID,0,VALID,93.5507,VALID,0,VALID,19.7097,VALID,5,VALID,0.291071,
2001-05-23, 03:22:00,VALID,916.801,VALID,0,VALID,93.5494,VALID,0,VALID,19.7131,VALID,5,VALID,0.25514,
2001-05-23, 03:23:00,VALID,916.813,VALID,0,VALID,93.5303,VALID,0,VALID,19.6967,VALID,2,VALID,0.430088,
2001-05-23, 03:24:00,VALID,916.813,VALID,0,VALID,93.4795,VALID,-0.0169808,VALID,19.6876,VALID,350,VALID,0.45918,
2001-05-23, 03:25:00,VALID,916.817,VALID,0,VALID,93.5558,VALID,0,VALID,19.6975,VALID,358,VALID,0.512952,
2001-05-23, 03:26:00,VALID,916.809,VALID,0,VALID,93.5634,VALID,-0.0169808,VALID,19.7002,VALID,1,VALID,0.629012,
2001-05-23, 03:27:00,VALID,916.804,VALID,0,VALID,93.3663,VALID,0,VALID,19.7295,VALID,14,VALID,0.615184,
2001-05-23, 03:28:00,VALID,916.8,VALID,0,VALID,93.2531,VALID,-0.0169808,VALID,19.7328,VALID,20,VALID,0.565905,
2001-05-23, 03:29:00,VALID,916.8,VALID,0,VALID,93.2162,VALID,0,VALID,19.7328,VALID,28,VALID,0.652444,
2001-05-23, 03:30:00,VALID,916.796,VALID,0,VALID,93.1921,VALID,0,VALID,19.7226,VALID,26,VALID,0.648661,
2001-05-23, 03:31:00,VALID,916.776,VALID,0,VALID,93.187,VALID,0,VALID,19.7295,VALID,25,VALID,0.608008,
2001-05-23, 03:32:00,VALID,916.76,VALID,0,VALID,93.2251,VALID,0,VALID,19.7295,VALID,24,VALID,0.858941,
2001-05-23, 03:33:00,VALID,916.736,VALID,0,VALID,93.3065,VALID,0,VALID,19.733,VALID,27,VALID,0.741102,
2001-05-23, 03:34:00,VALID,916.722,VALID,0,VALID,93.3523,VALID,0,VALID,19.7492,VALID,24,VALID,0.370144,
2001-05-23, 03:35:00,VALID,916.708,VALID,0,VALID,93.2391,VALID,0,VALID,19.7392,VALID,6,VALID,0.617393,
2001-05-23, 03:36:00,VALID,916.693,VALID,0,VALID,93.3777,VALID,-0.0339617,VALID,19.7201,VALID,3,VALID,0.818834,
2001-05-23, 03:37:00,VALID,916.693,VALID,0,VALID,93.4337,VALID,-0.0169808,VALID,19.7261,VALID,9,VALID,0.81609,